User: anonymous   Login
Location: �terpigny
(49.8910°N, 2.9249°E)
Time: 13:44:11
(UTC+00:00)
Language:

SEEDS - Orbit

View from above orbital plane
View from above orbital plane
View from above satellite
View from above satellite

Ground track
Ground track

The orbit data is extracted from the following two-line orbital elements,

1 32791U 08021J   22175.68274455  .00002366  00000-0  23430-3 0  9993
2 32791  97.6110 151.7880 0013265 158.2374 201.9411 14.92703298768278
Epoch (UTC): 24 June 2022 16:23:09
Eccentricity: 0.0013265
inclination: 97.6110°
perigee height: 580 km
apogee height: 599 km
right ascension of ascending node: 151.7880°
argument of perigee: 158.2374°
revolutions per day: 14.92703298
mean anomaly at epoch: 201.9411°
orbit number at epoch: 76827

The dashed part of the orbit path shows where the satellite is in the earth's shadow,  

DLR